Regional Weather Roundup
Issued by NWS

Home | Current Version | Previous Version | Graphics & Text | Print | Product List | Glossary On
Versions: 1 2 3 4 5 6 7 8 9 10 11 12 13 14 15 16 17 18 19 20 21 22 23 24 25 26 27 28 29 30 31 32 33 34 35 36 37 38 39 40 41 42 43 44 45 46 47 48 49 50
000
ASUS43 KMKX 252100
RWRWI

WISCONSIN REGIONAL WEATHER ROUNDUP
NATIONAL WEATHER SERVICE MILWAUKEE/SULLIVAN WI
400 PM CDT SUN SEP 25 2016

NOTE: "FAIR" INDICATES FEW OR NO CLOUDS BELOW 12,000 FEET WITH NO
SIGNIFICANT WEATHER AND/OR OBSTRUCTIONS TO VISIBILITY.

WIZ001-002-006>008-014>016-023>028-252200-
NORTHWEST WISCONSIN

CITY           SKY/WX    TMP DP  RH WIND       PRES   REMARKS
SUPERIOR ARPT  CLOUDY    63  53  70 SW10      29.79S
ASHLAND        PTSUNNY   70  57  63 SW17G25   29.77S
HAYWARD        CLOUDY    63  53  70 SW13G24   29.83R
SIREN          CLOUDY    62  52  70 SW12      29.85F
CUMBERLAND     CLOUDY    61  50  67 W17       29.87R
RICE LAKE      CLOUDY    64  52  65 W8G23     29.88R
CHETEK         NOT AVBL
LADYSMITH      CLOUDY    68  59  74 SW16      29.86S
EAU CLAIRE     NOT AVBL
MENOMONIE      CLOUDY    64  61  87 SW16G22   29.88S
NEW RICHMOND   MOSUNNY   64  51  62 SW15      29.88F
OSCEOLA        CLOUDY    65  53  65 SW16      29.90F
$$

WIZ003>005-009-010-017-018-252200-
NORTH CENTRAL WISCONSIN

CITY           SKY/WX    TMP DP  RH WIND       PRES   REMARKS
MANITOWISH WTR NOT AVBL
ARBOR VITAE    CLOUDY    67  65  95 S9        29.83F FOG
WOODRUFF       CLOUDY    67  65  95 S9        29.83F FOG
RHINELANDER    CLOUDY    67  67 100 SW7       29.85F FOG
EAGLE RIVER    LGT RAIN  64  64 100 S6        29.84F
LAND O LAKES   RAIN      65  64  99 S6        29.85F
PHILLIPS       PTSUNNY   68  63  84 SW17G23   29.82F
TOMAHAWK       PTSUNNY   66  65  94 CALM      29.84F FOG
MEDFORD        CLOUDY    69  68  96 W10G16    29.85F
MERRILL        CLOUDY    69  67  95 SW6       29.85F
$$

WIZ029-030-035-036-043>047-252200-
CENTRAL WISCONSIN

CITY           SKY/WX    TMP DP  RH WIND       PRES   REMARKS
WAUSAU         PTSUNNY   69  66  90 SW7       29.83F
MOSINEE        PTSUNNY   70  68  94 SW9       29.86F FOG
MARSHFIELD     CLOUDY    72  65  78 SW15      29.84F
STEVENS POINT  CLOUDY    69  67  93 SW8       29.85F
WAUPACA        CLOUDY    75  73  95 SW9       29.86F
WAUTOMA        CLOUDY    75  69  81 SW12      29.85F
WISC RAPIDS    CLOUDY    74  68  81 SW10      29.85F
CAMP DOUGLAS   NOT AVBL
$$

WIZ011>013-019>022-031-037>040-048>050-252200-
NORTHEAST WISCONSIN

CITY           SKY/WX    TMP DP  RH WIND       PRES   REMARKS
ANTIGO         RAIN      66  66 100 S10       29.86F
SHAWANO        LGT RAIN  72  69  90 W8        29.86S
OCONTO         NOT AVBL
STURGEON BAY   PTSUNNY   68  63  84 S16G24    29.87F
GREEN BAY      PTSUNNY   73  66  78 S14       29.83F
MANITOWOC      NOT AVBL
APPLETON       RAIN      72  66  83 S13       29.84F
CLINTONVILLE   NOT AVBL
OSHKOSH        RAIN      73  70  90 S16G33    29.84F FOG
$$

WIZ032>034-041-042-053>061-252200-
SOUTHWEST WISCONSIN

CITY           SKY/WX    TMP DP  RH WIND       PRES   REMARKS
LA CROSSE      CLOUDY    72  55  55 W18G25    29.88R
SPARTA         CLOUDY    73  65  76 W9        29.87F
VIROQUA        CLOUDY    72  63  72 SW16      29.90F
BOSCOBEL       CLOUDY    75  66  73 SW10      29.89S
PRAIRIE DU CHI CLOUDY    72  62  70 SW9       29.90S
PLATTEVILLE    MOSUNNY   76  68  76 SW16      29.92F
$$

WIZ056-057-062-063-064-067-068-252200-
SOUTH CENTRAL WISCONSIN

CITY           SKY/WX    TMP DP  RH WIND       PRES   REMARKS
REEDSBURG      NOT AVBL
BARABOO/DELLS  CLOUDY    75  66  73 SW8       29.87F
LONE ROCK      NOT AVBL
MINERAL POINT  CLOUDY    77  64  65 SW15G23   29.91F
MADISON        PTSUNNY   76  70  82 SW7       29.86F
MIDDLETON      PTSUNNY   78  70  75 SW9       29.88F HX  81
WATERTOWN      LGT RAIN  73  73 100 SW5       29.88R
MONROE         SUNNY     79  70  73 SW15G23   29.90F HX  81
JANESVILLE     MOSUNNY   75  73  94 CALM      29.89
$$

WIZ051-052-058>065-066-070>072-252200-
SOUTHEAST WISCONSIN

CITY           SKY/WX    TMP DP  RH WIND       PRES   REMARKS
MILWAUKEE      PTSUNNY   74  64  71 SE14      29.88F
WAUKESHA       HVY RAIN  73  64  73 SW17G37   29.94R VSB 1
MILWAUKEE/TIMM SUNNY     73  61  64 SE8       29.88F
RACINE         SUNNY     72  63  73 S15       29.91F
BURLINGTON     HVY RAIN  78  67  69 S8        29.90S
KENOSHA        SUNNY     76  65  68 SE14      29.90F
FOND DU LAC    LGT RAIN  74  70  87 S7G20     29.86F
SHEBOYGAN      SUNNY     69  63  81 S14G24    29.89F
WEST BEND      CLOUDY    70  63  78 SE10      29.88F
JUNEAU         CLOUDY    72  70  94 SW5G17    29.90R
$$

LSZ147-162-252200-
LAKE SUPERIOR

STATION/POSITION TIME  TEMP    WIND        PRES    WAVE
                       AIR SEA DIR/SP/G            HT/PER
                 (UTC) (F)     (DEG/KT/KT) (MB)    (FT/S)
W MID LAKE BUOY  1950   65 62  170/ 16/ 17 1006.8F   3/ 4
DEVILS ISLAND    2000   67     190/  8/ 12 1007.0F
SAXON HARBOR     2040   74     200/ 12/ 20 1007.5F
$$

LMZ867-665-643>646-252200-
LAKE MICHIGAN

STATION/POSITION TIME  TEMP    WIND        PRES    WAVE
                       AIR SEA DIR/SP/G            HT/PER
                 (UTC) (F)     (DEG/KT/KT) (MB)    (FT/S)
CHAMBERS ISLAND  2000   67     190/  5/ 12 1013.2S
N MID LAKE BUOY  1950   68 68  150/ 10/ 14 1014.0F   4/ 6
NORTHPORT PIER   2020   68     150/ 13/ 23 1012.9F
KEWAUNEE LAKESHO 2000   66     170/ 17/ 20 1013.0F
SHEBOYGAN LAKESH 2000   64     170/ 12/ 13 1012.7F
PORT WASHINGTON  2040   65     200/  4/  7 1013.2F
ATWATER BUOY     2000   61 52  150/ 10/ 14 1013.3F
MILWAUKEE LAKESH 2010   62     160/  9/ 10   N/A
S MID LAKE BUOY  1950   72 72  130/ 16/ 19 1014.3F   3/ 5
KENOSHA   LAKESH 2000   68     170/ 11/ 13 1013.2F
$$

TC  - TEMPERATURE IN CELSIUS
VSB - VISIBILITY IN STATUTE MILES
WCI - WIND CHILL INDEX
HX  - HEAT INDEX




USA.gov is the U.S. government's official web portal to all federal, state and local government web resources and services.